This demonstration page uses our WeatherBlox Daily Observations layout. Learn more.

Left ArrowRight Arrow

Hourly Observations for August 8, 2022

Temp ( °F °C ) Dew Point ( °F °C ) Humidity (%) Winds ( mph kmh ) Pressure ( in mb ) Visibility ( mi km ) Precip ( " mm )
12:56 am 00:56 Clear 63 17.2 61 16.1 93 93 NNE 5 7 30.10 1019 10 16 0.00 0.00
1:56 am 01:56 Clear 63 17.2 60 15.6 90 90 Calm 30.13 1020 10 16 0.00 0.00
2:56 am 02:56 Mostly Clear 62 16.7 60 15.6 93 93 NNW 5 7 30.12 1020 10 16 0.00 0.00
3:56 am 03:56 Clear 61 16.1 59 15 93 93 NW 3 6 30.14 1021 10 16 0.00 0.00
4:56 am 04:56 Clear 59 15 58 14.4 96 96 NW 5 7 30.14 1021 10 16 0.00 0.00
5:56 am 05:56 Clear 59 15 57 13.9 93 93 NNW 6 9 30.13 1020 10 16 0.00 0.00
6:56 am 06:56 Sunny 58 14.4 55 12.8 90 90 N 13 20 30.10 1019 10 16 0.00 0.00
7:56 am 07:56 Sunny 60 15.6 55 12.8 84 84 N 9 15 30.13 1020 10 16 0.00 0.00
8:56 am 08:56 Sunny 65 18.3 56 13.3 73 73 NNE 10 17 30.15 1021 10 16 0.00 0.00
9:56 am 09:56 Sunny 67 19.4 55 12.8 66 66 NE 13 20 30.16 1022 10 16 0.00 0.00
10:56 am 10:56 Sunny 70 21.1 56 13.3 61 61 ENE 10 17 30.16 1021 10 16 0.00 0.00
11:56 am 11:56 Sunny 71 21.7 57 13.9 61 61 ENE 10 17 30.16 1021 10 16 0.00 0.00
12:56 pm 12:56 Sunny 73 22.8 58 14.4 59 59 E 9 15 30.16 1021 10 16 0.00 0.00
1:56 pm 13:56 Sunny 75 23.9 59 15 57 57 E 8 13 30.14 1021 10 16 0.00 0.00
2:56 pm 14:56 Sunny 77 25 59 15 54 54 NE 9 15 30.12 1020 10 16 0.00 0.00
3:56 pm 15:56 Sunny 78 25.6 60 15.6 54 54 ENE 7 11 30.11 1020 10 16 0.00 0.00
4:56 pm 16:56 Sunny 79 26.1 60 15.6 52 52 ENE 8 13 30.09 1019 10 16 0.00 0.00
5:56 pm 17:56 Sunny 78 25.6 59 15 52 52 Calm 30.08 1019 10 16 0.00 0.00
6:19 pm 18:19 Mostly Sunny 79 26 61 16 54 54 E 5 7 29.99 1016 10 16 0.00 0.00
6:56 pm 18:56 Sunny 78 25.6 60 15.6 54 54 E 6 9 30.06 1018 10 16 0.00 0.00
7:56 pm 19:56 Sunny 75 23.9 62 16.7 64 64 E 7 11 30.06 1018 10 16 0.00 0.00
8:56 pm 20:56 Clear 70 21.1 63 17.2 78 78 SE 5 7 30.07 1018 10 16 0.00 0.00
9:56 pm 21:56 Clear 68 20 61 16.1 78 78 SSE 3 6 30.09 1019 10 16 0.00 0.00
10:56 pm 22:56 Clear 68 20 62 16.7 81 81 S 7 11 30.11 1020 10 16 0.00 0.00
11:56 pm 23:56 Clear 64 17.8 61 16.1 90 90 S 5 7 30.11 1020 10 16 0.00 0.00

Powered by AerisWeather